Location: �perlecques
(50.8057°N, 2.1521°E)
Time: 01:47:00
(UTC+00:00)

VELOX 1 - Pass Details

Date: 01 October 2021
Orbit: 627 x 642 km, 98.3° (Epoch: 21 October)

Event Time Altitude Azimuth Distance (km) Brightness Sun altitude
Rises 18:10:16 0° 1° (N) 2,929 ? -7.3°
Reaches altitude 10° 18:13:21 10° 337° (NNW) 2,018 ? -7.8°
Maximum altitude 18:15:41 14° 305° (NW) 1,740 ? -8.2°
Drops below altitude 10° 18:18:02 10° 272° (W) 2,014 ? -8.6°
Sets 18:21:07 0° 248° (WSW) 2,919 ? -9.0°
